Regional Weather Roundup
Issued by NWS

Home | Current Version | Previous Version | Text Only | Print | Product List | Glossary On
Versions: 1 2 3 4 5 6 7 8 9 10 11 12 13 14 15 16 17 18 19 20 21 22 23 24 25 26 27 28 29 30 31 32 33 34 35 36 37 38 39 40 41 42 43 44 45 46 47 48 49 50
717
ASUS44 KLIX 300401
RWRLA
LOUISIANA WEATHER ROUNDUP
NATIONAL WEATHER SERVICE NEW ORLEANS LA
1100 PM CDT WED OCT 29 2014

NOTE: "FAIR" INDICATES FEW OR NO CLOUDS BELOW 12,000 FEET WITH NO
      SIGNIFICANT WEATHER AND/OR OBSTRUCTIONS TO VISIBILITY.
      SKY/WX - SKY CONDITION AND SIGNIFICANT WEATHER.
      TMP - AIR TEMPERATURE.    DP   - DEWPOINT TEMPERATURE.
      RH  - RELATIVE HUMIDITY.  PRES - PRESSURE.
      HX  - HEAT INDEX.         WCI  - WIND CHILL INDEX.

*  THESE STATIONS ARE NOT NWS OR FAA STATIONS AND ARE NOT UNDER
   NWS QUALITY CONTROL.

LAZ040-048-061>063-065-066-069-300500-
SOUTHEAST LOUISIANA

CITY           SKY/WX    TMP DP  RH WIND       PRES   REMARKS
N.O. AUDUBON     N/A     73  64  73 MISG        N/A
N.O. INTL ARPT CLOUDY    72  61  68 NE15      30.07S
N.O. LAKEFRONT CLOUDY    73  63  70 N16       30.08R
N.O. DOWNTOWN* MOCLDY    72  59  64 N8        30.07F
SLIDELL        PTCLDY    67  59  75 N9        30.07R
BATON ROUGE    CLOUDY    64  54  69 NE6       30.11R
BOOTHVILLE     MOCLDY    74  70  87 N8        30.04S
BELLE CHASSE   CLOUDY    72  62  71 NE8       30.06R
BOGALUSA*        N/A     62  52  70 NE5       30.11R
NEW ROADS*     FAIR      59  53  80 N7        30.11S
GONZALES*      MOCLDY    66  64  91 N6        30.09S
HAMMOND*       NOT AVBL
HOUMA*         PTCLDY    69  65  88 N7        30.07S
PORT FOURCHON* CLOUDY    73  70  88 N5G13     30.08S

$$

LAZ041-044-053-054-300500-
SOUTHWEST LOUISIANA

CITY           SKY/WX    TMP DP  RH WIND       PRES   REMARKS
LAKE CHARLES   CLEAR     63  55  75 NE8       30.12R
LAFAYETTE      CLEAR     64  59  83 N7        30.11R
PATTERSON      CLEAR     66  63  88 N6        30.10F
SALT POINT       N/A     68  65  90 CALM      30.07S
NEW IBERIA     PTCLDY    66  61  84 N9        30.10S
CHENAULT AIRPK CLEAR     61  57  85 N3        30.13R

$$

LAZ027-028-300500-
CENTRAL LOUISIANA

CITY           SKY/WX    TMP DP  RH WIND       PRES   REMARKS
FORT POLK      CLEAR     59  48  67 NE6       30.13S
ALEXANDRIA INT CLEAR     51  49  92 NW3       30.13R
ALEXANDRIA     CLEAR     51  49  92 CALM      30.14R

$$

LAZ001-002-300500-
NORTHWEST LOUISIANA

CITY           SKY/WX    TMP DP  RH WIND       PRES   REMARKS
SHREVEPORT     CLEAR     52  48  86 CALM      30.15S
BARKSDALE AFB  CLEAR     52  50  92 N1        30.15S
DTN SHREVEPORT CLEAR     52  49  89 CALM      30.16R

$$

LAZ014-016-300500-
NORTHEAST LOUISIANA

CITY           SKY/WX    TMP DP  RH WIND       PRES   REMARKS
MONROE         CLEAR     53  47  79 NE3       30.16S
TALLULAH       CLEAR     51  45  79 N3        30.14F

$$




USA.gov is the U.S. government's official web portal to all federal, state and local government web resources and services.